{"data":{"norad_id":902,"epoch":"2026-09-19T22:34:23.531232Z","epoch_age_seconds":59309,"freshness":"FRESH","line1":"1 00902U 64063E   26262.94055013  .00000031  00000+0  34017-4 0  9997","line2":"2 00902  90.2290  78.0218 0017221 316.8762 200.2477 13.52906453869077","mean_motion":13.52906453,"eccentricity":0.0017221,"inclination_deg":90.229,"raan_deg":78.0218,"arg_perigee_deg":316.8762,"mean_anomaly_deg":200.2477,"bstar":3.4017e-5,"rev_number":86907,"period_min":106.43751434601,"perigee_km":1048.7722837435,"apogee_km":1074.3961715959,"semimajor_km":7439.7212276697,"source":"CELESTRAK","updated_at":"2026-09-20T09:00:47.874821Z"}}